This is the latest recevied weather packets stored in our database for station/object KD7JB. If no packets are shown the sender has not sent any weather packets the latest 10 day(s).
| Time | Temp. | Humidity | Pressure | Rain* | Wind** | Luminosity | Snow |
|---|---|---|---|---|---|---|---|
| 1777672060 | 16.11° C | 43% | 1179 hPa | 0 mm | - | 369 W/m² | - |
| 1777671756 | 16.67° C | 42% | 1178.9 hPa | 0 mm | - | 306 W/m² | - |
| 1777671453 | 16.67° C | 41% | 1179 hPa | 0 mm | - | 345 W/m² | - |
| 1777671149 | 17.22° C | 41% | 1179 hPa | 0 mm | - | 275 W/m² | - |
| 1777670845 | 17.22° C | 40% | 1178.9 hPa | 0 mm | - | 537 W/m² | - |
| 1777670542 | 17.78° C | 40% | 1178.8 hPa | 0 mm | - | 294 W/m² | - |
| 1777670239 | 17.78° C | 40% | 1179 hPa | 0 mm | - | 619 W/m² | - |
| 1777669936 | 17.78° C | 38% | 1179 hPa | 0 mm | - | 651 W/m² | - |
| 1777669633 | 17.78° C | 38% | 1179 hPa | 0 mm | - | 720 W/m² | - |
| 1777669330 | 17.78° C | 39% | 1179 hPa | 0 mm | - | 707 W/m² | - |
| 1777669026 | 17.22° C | 38% | 1179.2 hPa | 0 mm | - | 553 W/m² | - |
| 1777668723 | 17.22° C | 39% | 1179.1 hPa | 0 mm | - | 755 W/m² | - |
| 1777668420 | 17.78° C | 38% | 1179.2 hPa | 0 mm | - | 691 W/m² | - |
| 1777668115 | 16.67° C | 40% | 1179.1 hPa | 0 mm | - | 722 W/m² | - |
| 1777667813 | 16.67° C | 38% | 1178.9 hPa | 0 mm | - | 672 W/m² | - |
| 1777667510 | 16.67° C | 39% | 1179.4 hPa | 0 mm | - | 734 W/m² | - |
| 1777667207 | 17.78° C | 40% | 1179.2 hPa | 0 mm | - | 716 W/m² | - |
| 1777666904 | 16.67° C | 40% | 1179.4 hPa | 0 mm | - | 718 W/m² | - |
| 1777666601 | 16.67° C | 39% | 1179.4 hPa | 0 mm | - | 731 W/m² | - |
| 1777666297 | 16.67° C | 39% | 1179.4 hPa | 0 mm | - | 703 W/m² | - |
| 1777665994 | 16.67° C | 39% | 1179.3 hPa | 0 mm | - | 686 W/m² | - |
| 1777665692 | 16.67° C | 41% | 1179.4 hPa | 0 mm | - | 715 W/m² | - |
| 1777665389 | 16.67° C | 40% | 1179.3 hPa | 0 mm | - | 731 W/m² | - |
| 1777665085 | 16.11° C | 39% | 1179.4 hPa | 0 mm | - | 723 W/m² | - |
| 1777664780 | 15.56° C | 40% | 1179.4 hPa | 0 mm | - | 512 W/m² | - |
* Rain latest hour (hover to see other rain measurements)
** Current wind speed in m/s (hover to see current wind gust speed)